Location: Bucquoy
(50.1391°N, 2.7097°E)
Time: 02:44:00
(UTC+00:00)

Cosmos 2056 Rocket - Pass Details

Date: 06 May 2021
Orbit: 741 x 801 km, 74.0° (Epoch: 22 June)

Event Time Altitude Azimuth Distance (km) Brightness Sun altitude
Rises 03:34:11 0° 185° (S) 3,174 6.3 -6.6°
Reaches altitude 10° 03:36:35 10° 180° (S) 2,251 5.6 -6.3°
Maximum altitude 03:41:29 49° 106° (ESE) 957 4.4 -5.6°
Drops below altitude 10° 03:46:23 10° 33° (NNE) 2,266 7.3 -5.0°
Sets 03:48:49 0° 28° (NNE) 3,197 7.9 -4.6°
